Tracking 17142 objects as of 27-May-2015
HD Live streaming from Space Station

COSMOS 2251 DEB

Track COSMOS 2251 DEB now!
10-day predictions
COSMOS 2251 DEB is classified as:


NORAD ID: 34473
Int'l Code: 1993-036TS
Perigee: 741.9 km
Apogee: 773.5 km
Inclination: 74.0 °
Period: 99.8 minutes
Semi major axis: 7128 km
RCS: 0.0156 m2 (small)
Launch date: June 16, 1993
Source: Commonwealth of Independent States (former USSR) (CIS)

Note: This is SATELLITE DEBRIS
Your satellite tracking list
Your tracking list is empty





NASA's NSSDC Master Catalog

Two Line Element Set (TLE):
1 34473U 93036TS  15145.99589030  .00002109  00000-0  64359-3 0  9993
2 34473 074.0350 139.5498 0022180 044.9052 347.5461 14.42400349328440

Source of the keplerian elements: AFSPC

N2YO: 307